TIME,�g��[���C[MJ/h],����[MJ/h],�Ɩ�[MJ/h],�~�[[MJ/h],�①��[MJ/h],��y���[MJ/h],�Ǝ��q��[MJ/h],���̑��s��[MJ/h],�u�����`������[MJ/h]
2003/1/1 0:00,0.15984,0,0.62208,0,0.288,0.35712,0.08784,0,-0.04752
2003/1/1 0:15,0,0,0.14256,0,0,0.37584,0.0936,0,0.04896
2003/1/1 0:30,0,0,0.13536,0,0.34704,0.26352,0.12816,0,0.03024
2003/1/1 0:45,0,0,0.13824,0,0.30816,0.2592,0.0936,0,0.03168
2003/1/1 1:00,0,0,0.13536,0,0,0.2592,0.10368,0,0.06336
2003/1/1 1:15,0,0,0.1368,0,0.3096,0.2592,0.09504,0,0.02448
2003/1/1 1:30,0,0,0.1512,0,0.28512,0.2592,0.09936,0,0.03456
2003/1/1 1:45,0,0,0.14976,0,0,0.2592,0.09648,0,0.06624
2003/1/1 2:00,0,0,0.15264,0,0.29664,0.2592,0.13248,0,0.02448
2003/1/1 2:15,0,0,0.14112,0,0.32976,0.2592,0.09504,0,0.0288
2003/1/1 2:30,0,0,0.14832,0,0,0.2592,0.0936,0,0.06048
2003/1/1 2:45,0,0,0.13824,0,0.22032,0.2592,0.09648,0,0.0504
2003/1/1 3:00,0,0,0.13248,0,0.35712,0.2592,0.09792,0,0.04032
2003/1/1 3:15,0,0,0.13392,0,0,0.2592,0.09648,0,0.06624
2003/1/1 3:30,0,0,0.14544,0,0.17424,0.2592,0.13104,0,0.03888
2003/1/1 3:45,0,0,0.14256,0,0.39024,0.2592,0.1008,0,0.03168
2003/1/1 4:00,0,0,0.13824,0,0,0.2592,0.1008,0,0.06192
2003/1/1 4:15,0,0,0.1368,0,0.13824,0.2592,0.10224,0,0.04032
2003/1/1 4:30,0,0,0.14976,0,0.432,0.2592,0.10224,0,0.01008
2003/1/1 4:45,0,0,0.14544,0,0.08784,0.2592,0.10368,0,0.05328
2003/1/1 5:00,0,0,0.14688,0,0.02448,0.2592,0.09936,0,0.072
2003/1/1 5:15,0,0,0.16416,1.69776,0.40464,0.2592,0.12672,0,0.0648
2003/1/1 5:30,0.02592,0,0.19008,1.14912,0.12096,0.2592,0.09936,0,-0.05328
2003/1/1 5:45,0,0,0.14688,0.19152,0,0.2592,0.10224,0,0.0864
2003/1/1 6:00,0,0,0.13968,0.07488,0.35136,0.33984,0.10368,0,0.01728
2003/1/1 6:15,2.67984,0,0.43488,0.06048,0.20304,0.3672,0.10224,0,-0.09216
2003/1/1 6:30,3.53232,0,0.85392,0.00864,0,0.32976,0.13536,0,-0.11376
2003/1/1 6:45,3.27888,0,2.3256,1.55952,0.4104,0.20736,0.09216,0,-0.56016
2003/1/1 7:00,3.93408,0,2.5128,0,0.23328,0.26496,0.09648,0,-0.4104
2003/1/1 7:15,2.83968,0,2.19312,0,0,0.1944,0.26928,0,-0.2376
2003/1/1 7:30,2.70864,0,2.06352,0,0.26208,0.20448,0.45216,0,-0.26784
2003/1/1 7:45,2.59488,0,1.92816,0,0.30096,0.39744,0.35856,0,-0.24624
2003/1/1 8:00,2.89872,0,1.84032,0,0,0.29808,0.19296,0,-0.17856
2003/1/1 8:15,2.9952,0,0.81072,0,0.19152,0.30096,0.60048,0,-0.18432
2003/1/1 8:30,2.6712,0,0.6552,0,0.37152,0.29808,0.10656,0,-0.08928
2003/1/1 8:45,2.15856,0,0.40032,0,0,0.28656,0.11808,0,-0.00432
2003/1/1 9:00,2.18448,0,0.4248,0,0.12672,0.2808,0.12528,0,-0.0288
2003/1/1 9:15,2.124,0,0.41328,0,0.4032,0.2808,0.10512,0,-0.05472
2003/1/1 9:30,2.32128,0,0.4608,0,0.05904,0.33696,0.10224,0,-0.0144
2003/1/1 9:45,2.04624,0,0.39888,0,0.04176,0.2808,0.10512,0,0
2003/1/1 10:00,1.14768,0,0.58176,0,0.41184,0.2808,0.144,0,-0.02592
2003/1/1 10:15,0.22752,0,0.43632,0,0.1296,0.2808,0.13536,0,-0.01584
2003/1/1 10:30,0.19584,0,0.14256,0,0,0.30528,0.10656,0,0.0432
2003/1/1 10:45,0.19584,0,0.3888,0.82368,0.41328,0.60048,0.1008,0,-0.14832
2003/1/1 11:00,0.2232,0,0.37152,0,0.24048,0.35712,0.1368,0,0.02304
2003/1/1 11:15,0.00288,0,0.40608,0,0,0.40896,0.10224,0,0.04608
2003/1/1 11:30,0,0,0.37728,0.39312,0.2952,0.55008,0.09072,0,-0.06912
2003/1/1 11:45,0,0,0.3888,0.39024,0.3096,0.53136,0.09216,0,-0.04464
2003/1/1 12:00,0,0,0.52704,0,0,0.43776,0.1224,0,0.02592
2003/1/1 12:15,0.97488,0,0.44352,0.30384,0.24336,0.21168,0.10224,0,-0.14256
2003/1/1 12:30,0,0,0.16704,0.41328,0.36576,0.0864,0.10224,0,0.00576
2003/1/1 12:45,0,0,0.10944,0.12672,0.00432,0.0864,0.09504,0,0.06336
2003/1/1 13:00,0,0,0.11232,0,0.14832,0.0864,0.08928,0,0.06768
2003/1/1 13:15,0,0,0.11232,0,0.42048,0.0864,0.12096,0,0.03888
2003/1/1 13:30,0,0,0.10944,0,0.0432,0.0864,0.09072,0,0.08064
2003/1/1 13:45,0,0,0.11088,0,0.0576,0.0864,0.08784,0,0.07776
2003/1/1 14:00,0,0,0.10656,0,0.41904,0.0864,0.09216,0,0.04032
2003/1/1 14:15,0,0,0.10656,0,0.12096,0.0864,0.08928,0,0.06912
2003/1/1 14:30,0,0,0.11088,0,0,0.0864,0.08784,0,0.08208
2003/1/1 14:45,0,0,0.11232,0,0.37584,0.0864,0.08784,0,0.03312
2003/1/1 15:00,0,0,0.33552,0,0.20448,0.0864,0.11952,0,0.0288
2003/1/1 15:15,0,0,0.216,0,0,1.29888,0.10656,0,-0.0864
2003/1/1 15:30,0,0,0.2448,0,0.28368,0.39744,0.09792,0,-0.00144
2003/1/1 15:45,0.31248,0,0.55152,0,0.38736,0.0864,0.10512,0,-0.01584
2003/1/1 16:00,0.35136,0,0.70128,0,0,0.0864,0.10368,0,-0.00288
2003/1/1 16:15,0.7056,0,0.67392,0,0.11376,0.0864,0.10224,0,-0.07056
2003/1/1 16:30,2.9448,0,0.684,0,0.40176,0.19872,0.13536,0,-0.11808
2003/1/1 16:45,3.05856,0,0.40896,0,0.50832,0.09936,0.09504,0,-0.09648
2003/1/1 17:00,2.81664,0,0.396,0,0.54,0.0864,0.09792,0,-0.0864
2003/1/1 17:15,2.7288,0,0.39168,0,0.54,0.0864,0.10224,0,-0.09504
2003/1/1 17:30,2.68848,0,0.40176,0,0.41472,0.0864,0.10368,0,-0.0648
2003/1/1 17:45,2.51856,0,0.40896,0,0.47376,0.19008,0.1296,0,-0.0504
2003/1/1 18:00,2.15136,0,0.85392,0,0.44064,0.4464,0.09504,0,-0.12528
2003/1/1 18:15,2.11392,0,0.46944,0,0.42048,0.41328,0.09936,0,-0.07056
2003/1/1 18:30,2.28096,0,0.41184,0,0.29376,0.37584,0.10224,0,-0.0432
2003/1/1 18:45,2.4048,0,0.4104,0,0,0.40608,0.13968,0,-0.03456
2003/1/1 19:00,2.24208,0,0.62784,0,0.28944,0.40896,0.1008,0,-0.08496
2003/1/1 19:15,2.15856,0,0.96192,0,0.41328,0.26352,0.09936,0,-0.108
2003/1/1 19:30,2.30256,0,1.63296,1.18656,0.27216,0.1944,0.09792,0,-0.35568
2003/1/1 19:45,2.24784,0,1.60848,0,0,0.1944,0.1296,0,-0.13104
2003/1/1 20:00,3.0672,0,1.548,0.32832,0.35856,0.1944,0.09504,0,-0.24192
2003/1/1 20:15,4.67424,0,1.19376,0.4104,0.39888,0.1944,0.0864,0,-0.33696
2003/1/1 20:30,4.59216,0,1.88064,0.30096,0.04032,0.2232,0.08928,0,-0.37008
2003/1/1 20:45,4.60656,0,1.11888,0,0.26352,0.39744,0.53856,0,-0.34848
2003/1/1 21:00,4.33584,0,0.80928,0,0.39744,0.39168,0.08352,0,-0.25488
2003/1/1 21:15,4.4784,0,0.85248,0,0.39168,0.3888,0.09072,0,-0.23616
2003/1/1 21:30,2.81664,0,1.26,0,0.13824,0.39888,0.08928,0,-0.15696
2003/1/1 21:45,2.26656,0,0.88128,0,0,0.39744,0.08784,0,-0.04608
2003/1/1 22:00,4.69728,0,1.36656,0,0.20592,0.23616,0.12384,0,-0.2592
2003/1/1 22:15,4.47264,0,1.17072,0,0.396,0.23472,1.47024,0,-0.45936
2003/1/1 22:30,4.36032,0,1.30608,0,0.38304,0.21168,0.10368,0,-0.2808
2003/1/1 22:45,4.40496,0,1.2816,0,0.11808,0.1944,0.11808,0,-0.24912
2003/1/1 23:00,2.36304,0,0.88272,0,0,0.26208,1.1304,0,-0.15552
2003/1/1 23:15,0.60768,0,0.50256,0,0.17136,0.52704,0.08928,0,-0.05904
2003/1/1 23:30,0.20592,0,0.42768,0,0.39456,0.34704,0.1224,0,-0.072
2003/1/1 23:45,0.10656,0,0.40032,0,0.37872,0.35856,0.09648,0,-0.02304
2003/1/2 0:00,0,0,0.144,0,0.09936,0.35424,0.09936,0,0.04464
2003/1/2 0:15,0,0,0.14112,0,0,0.2808,0.10512,0,0.06192
2003/1/2 0:30,0,0,0.13968,0,0.16704,0.2808,0.14256,0,0.03024
2003/1/2 0:45,0,0,0.1368,0,0.39744,0.2808,0.108,0,0.0288
2003/1/2 1:00,0,0,0.14256,0,0.29088,0.2808,0.10368,0,0.036
2003/1/2 1:15,0,0,0.13968,0,0,0.2808,0.10368,0,0.06192
2003/1/2 1:30,0,0,0.14688,0,0,0.2808,0.10656,0,0.06048
2003/1/2 1:45,0,0,0.13968,0,0.32256,0.2808,0.10656,0,0.02736
2003/1/2 2:00,0,0,0.14112,0,0.39024,0.2808,0.13824,0,0.02592
2003/1/2 2:15,0,0,0.14256,0,0.10512,0.2808,0.10512,0,0.0504
2003/1/2 2:30,0,0,0.14256,0,0,0.2808,0.10512,0,0.0648
2003/1/2 2:45,0,0,0.14976,0,0.09792,0.2808,0.10224,0,0.04752
2003/1/2 3:00,0,0,0.14688,0,0.40032,0.2808,0.14112,0,0.01872
2003/1/2 3:15,0,0,0.1512,0,0.25056,0.2808,0.1008,0,0.03168
2003/1/2 3:30,0,0,0.13392,0,0,0.2808,0.10368,0,0.06336
2003/1/2 3:45,0,0,0.14544,0,0,0.2808,0.10656,0,0.06624
2003/1/2 4:00,0,0,0.13824,0,0.36864,0.2808,0.1368,0,0.01584
2003/1/2 4:15,0,0,0.14832,0,0.31104,0.2808,0.108,0,0.03168
2003/1/2 4:30,0,0,0.14544,0,0,0.2808,0.108,0,0.05904
2003/1/2 4:45,0,0,0.14976,0,0,0.2808,0.10512,0,0.06192
2003/1/2 5:00,0,0,0.1368,0,0.34992,0.2808,0.13248,0,0.0504
2003/1/2 5:15,0,0,0.15984,1.728,0.25344,0.2808,0.11088,0,0.06912
2003/1/2 5:30,0,0,0.16704,1.15344,0,0.2808,0.10512,0,0.07776
2003/1/2 5:45,0,0,0.14112,0.18864,0,0.2808,0.10512,0,0.09216
2003/1/2 6:00,1.22256,0,0.34992,0.07776,0.35712,0.28512,0.144,0,-0.072
2003/1/2 6:15,5.8248,0,0.71136,0.0648,0.324,0.29088,0.10368,0,-0.11376
2003/1/2 6:30,5.56272,0,1.04544,0.0648,0.00144,0.30672,0.10656,0,-0.22032
2003/1/2 6:45,4.89744,0,0.92016,0.0648,0,0.31104,0.10512,0,-0.15408
2003/1/2 7:00,3.9528,0,1.19808,0.01728,0.2664,0.20304,0.10368,0,-0.12528
2003/1/2 7:15,3.50352,0,1.6056,0,0.39312,0.1944,0.6264,0,-0.21312
2003/1/2 7:30,3.67056,0,1.5912,0,0.15408,0.1944,0.54576,0,-0.18
2003/1/2 7:45,2.50272,0,1.60416,0.21024,0.00432,0.1944,0.56304,0,-0.2664
2003/1/2 8:00,0.8496,0,1.53792,0,0.11808,0.1944,0.7776,0,-0.28512
2003/1/2 8:15,0.5832,0,0.95184,0,0.39456,0.25344,0.67104,0,-0.22752
2003/1/2 8:30,0.56736,0,0.56016,0,0.31968,0.41616,0.31536,0,-0.14256
2003/1/2 8:45,0.58464,0,0.6552,0,0,0.4176,0.10512,0,-0.10512
2003/1/2 9:00,1.71216,0,0.67536,0,0,0.32832,0.1368,0,-0.11952
2003/1/2 9:15,3.67488,0,0.27792,0,0.28944,0.25632,4.95504,0,-2.41056
2003/1/2 9:30,3.31056,0,0.50256,1.17216,0.40032,0.50832,0.10944,0,-0.24336
2003/1/2 9:45,3.00672,0,0.50976,0.29376,0.27216,0.53856,0.108,0,-0.14256
2003/1/2 10:00,2.77488,0,0.6984,0,0,0.53424,0.1368,0,-0.10224
2003/1/2 10:15,1.64448,0,0.55152,0,0,0.4968,0.09648,0,0.00576
2003/1/2 10:30,0.16416,0,0.40464,0,0.33696,0.31824,0.1008,0,-0.02448
2003/1/2 10:45,0.16416,0,0.39888,0,0.3816,0.31824,0.13104,0,-0.0432
2003/1/2 11:00,0.31824,0,0.40032,0,0.27216,0.31824,0.09792,0,-0.05184
2003/1/2 11:15,0.324,0,0.18432,0,0,0.31824,0.09648,0,0
2003/1/2 11:30,0.28944,0,0.1224,0,0,0.31968,0.13392,0,0.01008
2003/1/2 11:45,0.324,0,0.1296,0,0.3672,0.31824,0.10368,0,-0.02016
2003/1/2 12:00,0.30096,0,0.11232,0,0.37728,0.32112,0.1008,0,-0.00432
2003/1/2 12:15,0.22896,0,0.11952,0,0.25056,0.3168,0.09936,0,0.01152
2003/1/2 12:30,0.20304,0,0.13104,0,0,0.31968,0.12672,0,0.0288
2003/1/2 12:45,0.14688,0,0.19152,1.53936,0.06624,0.31824,0.11376,0,-0.21168
2003/1/2 13:00,0,0,0.13536,0.24624,0.39168,0.31824,0.13536,0,-0.03168
2003/1/2 13:15,0.2088,0,0.17856,0,0.38016,0.35424,0.37008,0,-0.05904
2003/1/2 13:30,0.22176,0,0.44064,0.32112,0.22608,0.39312,0.12528,0,-0.09504
2003/1/2 13:45,0.24912,0,0.12384,0.96192,0.03456,0.39744,0.09504,0,-0.0936
2003/1/2 14:00,0.25776,0,0.1152,0.43776,0.03168,0.38304,0.10224,0,-0.02592
2003/1/2 14:15,0.2592,0,0.13536,0.17712,0.39456,0.38448,0.1296,0,-0.05184
2003/1/2 14:30,0.27936,0,0.23328,0,0.37872,0.38592,0.09216,0,-0.04176
2003/1/2 14:45,0.32688,0,0.13248,0,0.1584,0.38592,0.09792,0,0.00432
2003/1/2 15:00,0.25632,0,0.13536,0,0,0.40608,0.13248,0,-0.0144
2003/1/2 15:15,0.23184,0,0.1296,0,0.05904,0.36864,0.09648,0,-0.00576
2003/1/2 15:30,0.22896,0,0.13824,0,0.3888,0.3816,0.09792,0,-0.0216
2003/1/2 15:45,0.23184,0,0.11664,0,0.37728,0.3816,0.0936,0,-0.0072
2003/1/2 16:00,0.2232,0,0.13824,0,0.12384,0.38016,0.09936,0,0.00144
2003/1/2 16:15,3.17952,0,0.3888,0,0,0.3744,0.1368,0,-0.03456
2003/1/2 16:30,3.0456,0,0.45648,0,0.29808,0.37872,0.10224,0,-0.05616
2003/1/2 16:45,2.9232,0,0.41328,0,0.38016,0.37584,0.09504,0,-0.04896
2003/1/2 17:00,2.8584,0,0.39888,0,0.42192,0.40032,0.12528,0,-0.06336
2003/1/2 17:15,2.79504,0,0.5256,0.39312,0.52272,0.37584,0.09504,0,-0.0792
2003/1/2 17:30,2.79936,0,0.51696,0.56304,0.53568,0.37584,0.09936,0,-0.10656
2003/1/2 17:45,2.82384,0,0.69984,1.9224,0.4536,0.3888,0.09792,0,-0.15696
2003/1/2 18:00,2.64816,0,0.83376,0.24048,0.47232,0.43776,0.13104,0,-0.10944
2003/1/2 18:15,2.60784,0,1.06848,0.05904,0.43632,0.4536,0.09648,0,-0.16272
2003/1/2 18:30,2.72592,0,1.27584,0.42336,0.43488,0.32832,0.21168,0,-0.23904
2003/1/2 18:45,2.45952,0,1.52064,0.21744,0.41184,0.1944,0.10512,0,-0.17712
2003/1/2 19:00,2.43504,0,1.42128,0,0.38016,0.1944,0.13104,0,-0.11232
2003/1/2 19:15,2.57904,0,1.67472,0,0.34848,0.432,0.10512,0,-0.19296
2003/1/2 19:30,3.8592,0,2.10672,0.06912,0.00144,0.43488,0.10512,0,-0.29376
2003/1/2 19:45,6.96096,0,2.27088,0.46656,0.01728,0.4104,0.13248,0,-0.60624
2003/1/2 20:00,6.94944,0,1.85184,0.36144,0.3816,0.576,0.09648,0,-0.68976
2003/1/2 20:15,6.2712,0,1.32048,0,0.38736,0.44208,0.56304,0,-0.50256
2003/1/2 20:30,4.39488,0,1.06272,0,0.37584,0.1944,0.12672,0,-0.22752
2003/1/2 20:45,4.7016,0,0.9504,0,0.04032,0.1944,0.09504,0,-0.20592
2003/1/2 21:00,4.50144,0,1.9368,0,0,0.1944,0.13104,0,-0.32976
2003/1/2 21:15,4.39488,0,1.50192,0,0.2232,0.29376,1.58976,0,-0.50976
2003/1/2 21:30,4.68,0,1.31616,0,0.39024,0.41184,0.0936,0,-0.34992
2003/1/2 21:45,4.25232,0,1.45584,0,0.37872,0.324,0.12096,0,-0.36
2003/1/2 22:00,4.3488,0,1.04256,0,0.31248,0.75312,0.09216,0,-0.32688
2003/1/2 22:15,4.34448,0,0.98496,0,0,0.83952,0.09936,0,-0.2664
2003/1/2 22:30,4.34736,0,1.94544,0,0,0.79776,0.12528,0,-0.4176
2003/1/2 22:45,4.25376,0,1.3464,0,0.31248,0.6552,0.09072,0,-0.36576
2003/1/2 23:00,2.97792,0,0.82944,0,0.3816,0.5544,0.09072,0,-0.14688
2003/1/2 23:15,2.56176,0,0.67104,0,0.37296,0.53712,0.0936,0,-0.0936
2003/1/2 23:30,0.8496,0,0.47376,0,0.02448,0.41616,0.13248,0,-0.01872
2003/1/2 23:45,0,0,0.14688,0,0,0.33408,0.10368,0,0.08208
2003/1/3 0:00,0,0,0.16272,0,0.33984,0.3312,0.10512,0,0.03024
2003/1/3 0:15,0,0,0.1368,0,0.38304,0.29376,0.10368,0,0.02592
2003/1/3 0:30,0,0,0.144,0,0.23472,0.2808,0.1368,0,0.03168
2003/1/3 0:45,0,0,0.13968,0,0,0.2808,0.10368,0,0.06048
2003/1/3 1:00,0,0,0.14256,0,0,0.2808,0.10368,0,0.06192
2003/1/3 1:15,0,0,0.13824,0,0.3888,0.27792,0.1224,0,0.00864
2003/1/3 1:30,0,0,0.14256,0,0.37728,0.26208,0.12384,0,0.01872
2003/1/3 1:45,0,0,0.14832,0,0.15696,0.27216,0.10368,0,0.03888
2003/1/3 2:00,0,0,0.14256,0,0,0.26352,0.10512,0,0.06048
2003/1/3 2:15,0,0,0.14688,0,0.06336,0.2592,0.13968,0,0.03888
2003/1/3 2:30,0,0,0.14544,0,0.39888,0.26208,0.10368,0,0.02016
2003/1/3 2:45,0,0,0.14544,0,0.3384,0.26208,0.10656,0,0.02448
2003/1/3 3:00,0,0,0.14256,0,0,0.2592,0.10656,0,0.06048
2003/1/3 3:15,0,0,0.13968,0,0,0.27792,0.13536,0,0.05904
2003/1/3 3:30,0,0,0.14832,0,0.23904,0.27648,0.10512,0,0.0432
2003/1/3 3:45,0,0,0.144,0,0.38448,0.2808,0.108,0,0.01872
2003/1/3 4:00,0,0,0.14832,0,0.19008,0.27936,0.13392,0,0.03888
2003/1/3 4:15,0,0,0.14544,0,0,0.27936,0.10368,0,0.06048
2003/1/3 4:30,0,0,0.14544,0,0,0.27504,0.10368,0,0.06048
2003/1/3 4:45,0,0,0.14544,0,0.35136,0.2736,0.1368,0,0.00144
2003/1/3 5:00,0,0,0.14256,0,0.37584,0.27792,0.10512,0,0.01872
2003/1/3 5:15,0,0,0.13536,0,0.0144,0.2808,0.10224,0,0.06624
2003/1/3 5:30,0,0,0.14112,0,0,0.27792,0.108,0,0.06912
2003/1/3 5:45,0.02592,0,0.16416,1.69776,0.1224,0.27936,0.13968,0,0.03312
2003/1/3 6:00,0,0,0.19872,1.03968,0.38736,0.2808,0.10656,0,-0.04464
2003/1/3 6:15,0,0,0.15408,0.18144,0.25776,0.2808,0.10368,0,0.04464
2003/1/3 6:30,0.17712,0,0.20304,0.07344,0,0.36432,0.13824,0,0.03888
2003/1/3 6:45,5.724,0,0.82512,0.05904,0,0.40896,0.1008,0,-0.17424
2003/1/3 7:00,4.52016,0,1.11456,0.05904,0.26928,0.36144,0.10944,0,-0.18576
2003/1/3 7:15,4.5432,0,1.24848,0.91584,0.432,0.25776,0.13536,0,-0.37872
2003/1/3 7:30,4.21632,0,1.73232,0.08784,0.26064,0.40464,0.16416,0,-0.28656
2003/1/3 7:45,4.17024,0,1.43712,0,0,0.31968,0.58608,0,-0.24192
2003/1/3 8:00,4.20624,0,0.76464,0,0.13104,0.1944,0.71136,0,-0.17568
2003/1/3 8:15,3.08304,0,0.87408,0,0.37872,0.25344,0.6768,0,-0.18144
2003/1/3 8:30,3.36528,0,1.21104,0,0.2448,0.4392,0.14112,0,-0.35712
2003/1/3 8:45,2.78928,0,1.25856,0,0,0.42336,0.10656,0,-0.27216
2003/1/3 9:00,2.7,0,0.76464,0.56592,0.07488,0.2232,1.42848,0,-0.47952
2003/1/3 9:15,3.10752,0,0.65952,0,0.37872,0.1944,2.14992,0,-0.55152
2003/1/3 9:30,3.42864,0,0.41616,0,0.37296,0.1944,0.10656,0,-0.26496
2003/1/3 9:45,3.29472,0,0.4248,0,0.01728,0.1944,0.14544,0,-0.2016
2003/1/3 10:00,3.24864,0,0.40896,0,0,0.1944,0.108,0,-0.21744
2003/1/3 10:15,3.20976,0,0.40176,0,0.27504,0.1944,0.10944,0,-0.2448
2003/1/3 10:30,2.4768,0,0.45792,0,0.37296,0.1944,0.10944,0,-0.16992
2003/1/3 10:45,1.93104,0,0.53568,0,0.07344,0.1944,0.144,0,-0.09792
2003/1/3 11:00,1.99728,0,0.5328,0,0,0.1944,0.10512,0,-0.09504
2003/1/3 11:15,1.9728,0,0.53136,0,0.18288,0.1944,0.10656,0,-0.108
2003/1/3 11:30,1.92528,0,0.53424,0,0.37584,0.1944,0.14112,0,-0.14256
2003/1/3 11:45,1.67184,0,0.52992,0,0.1584,0.1944,0.10368,0,-0.08496
2003/1/3 12:00,2.59776,0,0.29088,0.90144,0.03312,0.29808,0.11088,0,-0.33696
2003/1/3 12:15,2.69856,0,0.12816,0,0.07488,0.396,0.13968,0,-0.21888
2003/1/3 12:30,2.70432,0,0.13536,0,0.38016,0.40032,0.10512,0,-0.24912
2003/1/3 12:45,2.56752,0,0.15552,0,0.24336,0.40896,0.108,0,-0.24192
2003/1/3 13:00,1.85904,0,0.36,0,0,0.24912,0.1152,0,-0.08784
2003/1/3 13:15,1.69632,0,0.54576,0,0,0.1944,0.1368,0,-0.06624
2003/1/3 13:30,1.5048,0,0.5328,0,0.3384,0.1944,0.11232,0,-0.09792
2003/1/3 13:45,1.47456,0,0.60192,0,0.35712,0.1944,0.11376,0,-0.09792
2003/1/3 14:00,1.72368,0,0.54144,0,0,0.1944,0.10944,0,-0.05904
2003/1/3 14:15,1.5192,0,0.53856,0,0,0.1944,0.14256,0,-0.06768
2003/1/3 14:30,1.62576,0,0.54144,0,0.23616,0.1944,0.10944,0,-0.09648
2003/1/3 14:45,1.476,0,0.54288,0,0.3744,0.1944,0.10368,0,-0.09504
2003/1/3 15:00,1.368,0,0.54144,0,0.0792,0.1944,0.13968,0,-0.06336
2003/1/3 15:15,1.7136,0,0.53568,0,0,0.1944,0.11232,0,-0.06912
2003/1/3 15:30,1.50048,0,0.54,0,0.13536,0.1944,0.10944,0,-0.072
2003/1/3 15:45,1.63008,0,0.53856,0,0.37872,0.1944,0.10944,0,-0.1152
2003/1/3 16:00,4.2048,0,0.72864,0,0.27216,0.1944,0.1368,0,-0.14544
2003/1/3 16:15,4.5288,0,0.684,0,0,0.1944,0.108,0,0.01008
2003/1/3 16:30,3.82896,0,0.82512,0,0,0.1944,0.10368,0,-0.0648
2003/1/3 16:45,3.63744,0,0.612,0,0.31248,0.1944,0.13968,0,-0.07488
2003/1/3 17:00,3.60288,0,0.68832,0,0.36864,0.1944,0.108,0,-0.1008
2003/1/3 17:15,3.19968,0,1.09872,0,0.40896,0.1944,0.108,0,-0.16992
2003/1/3 17:30,3.34656,0,0.4104,0,0.54,0.1944,0.13536,0,-0.1296
2003/1/3 17:45,2.9088,0,0.39888,0,0.53568,0.1944,0.108,0,-0.04752
2003/1/3 18:00,2.9088,0,0.63072,0.59904,0.42768,0.1944,0.13824,0,-0.12672
2003/1/3 18:15,3.12048,0,0.56304,1.2816,0.43776,0.1944,0.09936,0,-0.0648
2003/1/3 18:30,2.75616,0,0.65376,1.1448,0.40032,0.1944,0.11088,0,0.00144
2003/1/3 18:45,2.31696,0,0.61632,0.40752,0.40896,0.1944,0.108,0,-0.04896
2003/1/3 19:00,2.50992,0,0.59616,0.07056,0.25776,0.1944,0.14112,0,-0.02304
2003/1/3 19:15,2.97504,0,0.55008,0.06048,0,0.1944,0.10368,0,0.01296
2003/1/3 19:30,2.7792,0,1.008,0.0648,0.18288,0.1944,0.10944,0,-0.0504
2003/1/3 19:45,2.78064,0,1.2816,0.56304,0.39024,0.1944,0.13968,0,-0.1872
2003/1/3 20:00,2.79216,0,1.51776,0.29088,0.37152,0.1944,0.10368,0,-0.144
2003/1/3 20:15,2.65104,0,1.54224,0.11808,0,0.1944,0.108,0,-0.108
2003/1/3 20:30,5.01408,0,2.08944,0.29088,0.21744,0.1944,0.1368,0,-0.42336
2003/1/3 20:45,5.2416,0,1.77408,0.47808,0.39888,0.25344,0.1008,0,-0.42048
2003/1/3 21:00,5.32944,0,0.98064,0.38448,0.38448,0.1944,0.09792,0,-0.32256
2003/1/3 21:15,5.23728,0,1.35072,0.12096,0.09792,0.1944,0.09936,0,-0.29952
2003/1/3 21:30,6.7536,0,1.09296,0.11664,0,0.1944,0.648,0,-0.36144
2003/1/3 21:45,7.04448,0,0.91584,0.0288,0.29664,0.1944,0.09936,0,-0.16128
2003/1/3 22:00,6.39504,0,2.26512,0,0.3816,0.1944,0.0936,0,-0.46944
2003/1/3 22:15,6.1704,0,1.2384,0,0.37296,0.1944,0.27216,0,-0.31104
2003/1/3 22:30,5.84064,0,0.69264,0,0.00864,0.1944,0.0936,0,-0.12672
2003/1/3 22:45,5.06448,0,1.32048,0,0.00288,0.1944,0.09792,0,-0.20304
2003/1/3 23:00,5.20992,0,1.29168,0,0.39888,0.1944,0.12528,0,-0.24912
2003/1/3 23:15,3.35376,0,1.06272,0,0.37728,0.31392,0.79776,0,-0.20736
2003/1/3 23:30,2.62656,0,1.42704,0,0.25488,0.41328,0.31248,0,-0.21456
2003/1/3 23:45,2.0736,0,1.47312,0,0,0.45504,1.48608,0,-0.3384
2003/1/4 0:00,2.0088,0,1.17072,0,0.1728,0.43632,0.09504,0,-0.13824
2003/1/4 0:15,2.0664,0,1.16784,0,0.39168,0.40464,0.0936,0,-0.17136
2003/1/4 0:30,1.98288,0,1.73376,0,0.37584,0.39024,0.12528,0,-0.22752
2003/1/4 0:45,0.39168,0,1.16352,0,0.09504,0.50112,0.0936,0,-0.13392
2003/1/4 1:00,0.18864,0,1.05264,0,0,0.54288,0.09504,0,-0.13536
2003/1/4 1:15,0.44208,0,1.04688,0,0.31968,0.55008,0.0936,0,-0.21456
2003/1/4 1:30,0.36432,0,1.05984,0,0.3816,0.5256,0.12672,0,-0.20592
2003/1/4 1:45,0.39168,0,1.044,0,0.19008,0.53568,0.09216,0,-0.16416
2003/1/4 2:00,0.3744,0,1.08864,0,0,0.52704,0.09792,0,-0.14976
2003/1/4 2:15,0.35136,0,1.07568,0,0.19152,0.5256,0.09792,0,-0.20304
2003/1/4 2:30,0.28368,0,1.0944,0,0.3888,0.46368,0.13104,0,-0.19728
2003/1/4 2:45,0,0,0.26064,0,0.252,0.35424,0.09936,0,0.00288
2003/1/4 3:00,0,0,0.1368,0,0,0.28224,0.09936,0,0.03888
2003/1/4 3:15,0,0,0.14544,0,0.12816,0.2592,0.09504,0,0.01872
2003/1/4 3:30,0,0,0.144,0,0.38448,0.2592,0.12816,0,0.0072
2003/1/4 3:45,0,0,0.14256,0,0.2952,0.2592,0.09648,0,0.01584
2003/1/4 4:00,0,0,0.14832,0,0,0.2592,0.09648,0,0.036
2003/1/4 4:15,0,0,0.14544,0,0.03456,0.2592,0.1008,0,0.03168
2003/1/4 4:30,0,0,0.15408,0,0.39888,0.2592,0.13104,0,0.00144
2003/1/4 4:45,0,0,0.13824,0,0.32544,0.2592,0.1008,0,0.0144
2003/1/4 5:00,0,0,0.14112,0,0,0.2592,0.09936,0,0.04464
2003/1/4 5:15,0,0,0.144,0,0,0.2592,0.09936,0,0.0432
2003/1/4 5:30,0,0,0.15264,0,0.38304,0.2592,0.12528,0,0.0072
2003/1/4 5:45,0,0,0.13824,0,0.37584,0.2592,0.09936,0,0.00864
2003/1/4 6:00,0,0,0.14688,0,0.06768,0.2592,0.09648,0,0.036
2003/1/4 6:15,0,0,0.14976,0.19008,0,0.2592,0.10368,0,0.02448
2003/1/4 6:30,0.02592,0,0.22752,1.97424,0.18,0.27648,0.13536,0,-0.01152
2003/1/4 6:45,4.752,0,1.47744,0.78912,0.37008,0.30816,0.10224,0,-0.32112
2003/1/4 7:00,4.19184,0,1.73088,0.64512,0.36432,0.3312,0.108,0,-0.34704
2003/1/4 7:15,4.42656,0,1.72512,0.1656,0.03744,0.324,0.13392,0,-0.2232
2003/1/4 7:30,4.64544,0,1.55808,0.05904,0.03888,0.32256,0.1008,0,-0.26064
2003/1/4 7:45,4.6152,0,1.58688,0.06048,0.38736,0.324,0.11088,0,-0.28224
2003/1/4 8:00,6.66864,0,2.0088,0.10656,0.3744,0.324,0.09936,0,-0.60192
2003/1/4 8:15,6.54048,0,1.16784,0,0.07488,0.38016,0.13248,0,-0.3456
2003/1/4 8:30,5.2992,0,0.80352,0,0,0.324,0.66096,0,-0.26352
2003/1/4 8:45,1.43568,0,0.39888,0,0.19728,0.21888,0.76176,0,-0.14256
2003/1/4 9:00,0.78336,0,0.4464,0.54432,0.37728,0.22752,0.38736,0,-0.10656
2003/1/4 9:15,0,0,0.3816,0,0.29376,0.324,0.40752,0,-0.01728
2003/1/4 9:30,1.98576,0,1.10736,0,0,0.324,0.09792,0,-0.04752
2003/1/4 9:45,2.4552,0,1.03392,0,0,0.324,0.1008,0,-0.04176
2003/1/4 10:00,2.64816,0,0.60336,0.3024,0.38592,0.32256,0.13536,0,-0.03312
2003/1/4 10:15,2.36736,0,0.37296,0.36864,0.37296,0.324,0.09792,0,-0.02592
2003/1/4 10:30,2.24208,0,0.78912,0.00144,0.1296,0.35568,0.09792,0,-0.04032
2003/1/4 10:45,0.8424,0,0.2808,0,0,0.49824,0.64656,0,-0.0432
2003/1/4 11:00,0,0,0.17568,0,0.22464,0.5976,0.12672,0,-0.01152
2003/1/4 11:15,0.20736,0,0.29088,0.44496,0.4104,0.54288,0.08784,0,-0.14832
2003/1/4 11:30,0.79344,0,0.12384,0.00144,0.36864,0.31824,0.09216,0,-0.04896
2003/1/4 11:45,0.56736,0,0.12528,0,0.27792,0.31824,0.12816,0,-0.03024
2003/1/4 12:00,0.56016,0,0.1224,0,0,0.32544,0.10512,0,-0.02016
2003/1/4 12:15,0.51552,0,0.14832,0,0,0.31824,0.1008,0,-0.02592
2003/1/4 12:30,3.69936,0,0.83808,1.80288,0.42336,0.32112,0.0936,0,-0.36
2003/1/4 12:45,3.00096,0,1.33344,0.144,0.40176,0.31248,0.12384,0,-0.11808
2003/1/4 13:00,3.29616,0,1.53648,0,0.35712,0.3168,0.0936,0,-0.15984
2003/1/4 13:15,3.6,0,1.26432,0,0.15264,0.31392,0.0936,0,-0.1296
2003/1/4 13:30,3.8952,0,0.7128,0,0,0.3168,0.09936,0,-0.1008
2003/1/4 13:45,3.6648,0,0.66528,0,0.11952,0.3168,0.14256,0,-0.08208
2003/1/4 14:00,4.21632,0,0.66528,0,0.38304,0.31536,0.10224,0,-0.10512
2003/1/4 14:15,3.81744,0,0.66096,0,0.36576,0.32112,0.10512,0,-0.08208
2003/1/4 14:30,3.59712,0,0.65808,0,0.35712,0.3168,0.13536,0,-0.10656
2003/1/4 14:45,3.50352,0,0.91728,0,0.07488,0.32976,0.08064,0,-0.11088
2003/1/4 15:00,3.56544,0,0.9072,0,0,0.42768,0.07488,0,-0.1008
2003/1/4 15:15,6.8328,0,0.828,0,0.15984,0.4104,0.14256,0,-0.56304
2003/1/4 15:30,4.42944,0,0.98784,0,0.37728,0.34992,0.1368,0,-0.35856
2003/1/4 15:45,0,0,0.11952,0,0.36864,0.1944,0.10368,0,0.02736
2003/1/4 16:00,0,0,0.11952,0,0.53712,0.1944,0.1008,0,-0.01584
2003/1/4 16:15,0,0,0.12096,0,0.54,0.1944,0.13824,0,-0.03024
2003/1/4 16:30,0,0,0.11376,0,0.43344,0.1944,0.10224,0,0.01584
2003/1/4 16:45,0,0,0.11088,0,0.46224,0.1944,0.10368,0,0.02016
2003/1/4 17:00,0,0,0.11088,0,0.4176,0.1944,0.10656,0,0.02016
2003/1/4 17:15,0,0,0.11088,0,0.39168,0.1944,0.10656,0,0.02016